Location: Dompnac
(44.5644°N, 4.1026°E)
Time: 21:01:08
(UTC+00:00)

Cosmos 2082 Rocket - Pass Details

Date: 19 September 2020
Orbit: 834 x 853 km, 71.0° (Epoch: 27 October)

Event Time Altitude Azimuth Distance (km) Brightness Sun altitude
Rises 20:25:37 0° 341° (NNW) 3,392 6.1 -27.7°
Reaches altitude 10° 20:28:27 10° 354° (N) 2,454 5.1 -28.1°
Enters shadow 20:32:08 26° 33° (NNE) 1,613 3.6 -28.7°
